Waarnemingen

Advertentie
Mijn weer
Falsterbo, Zweden (2616): temperatuur & dauwpunt: 18.08.2019 00:00:00 - 24.08.2019 00:00:00 (CEST)Falsterbo, Zweden (2616): windsnelheid: 18.08.2019 00:00:00 - 24.08.2019 00:00:00 (CEST)Falsterbo, Zweden (2616): windrichting: 18.08.2019 00:00:00 - 24.08.2019 00:00:00 (CEST)Falsterbo, Zweden (2616): luchtdruk: 18.08.2019 00:00:00 - 24.08.2019 00:00:00 (CEST)Falsterbo, Zweden (2616): zicht: 18.08.2019 00:00:00 - 24.08.2019 00:00:00 (CEST)
Datum & Tijd tt [°C] td [°C] ff [km/u] ff [kn] dd ppp [hPa] vv [km]
24.08.2019 00:00:00 - - - - - - -
23.08.2019 23:00:00 19,2 16,8 11 6 WZW 1025,6 30
23.08.2019 22:00:00 - - - - - - -
23.08.2019 21:00:00 - - - - - - -
23.08.2019 20:00:00 20,4 16,6 11 6 WZW 1025,1 35
23.08.2019 19:00:00 - - - - - - -
23.08.2019 18:00:00 - - - - - - -
23.08.2019 17:00:00 23,3 13,5 18 10 ZW 1025,2 40
23.08.2019 16:00:00 - - - - - - -
23.08.2019 15:00:00 - - - - - - -
23.08.2019 14:00:00 22,6 13,4 22 12 ZZW 1025,6 35
23.08.2019 13:00:00 - - - - - - -
23.08.2019 12:00:00 - - - - - - -
23.08.2019 11:00:00 20,4 14,3 22 12 ZW 1025,6 35
23.08.2019 10:00:00 - - - - - - -
23.08.2019 09:00:00 - - - - - - -
23.08.2019 08:00:00 18,4 14,5 18 10 ZW 1024,9 30
23.08.2019 07:00:00 - - - - - - -
23.08.2019 06:00:00 - - - - - - -
23.08.2019 05:00:00 17,7 15,5 14 8 ZW 1024,5 28
23.08.2019 04:00:00 - - - - - - -
23.08.2019 03:00:00 - - - - - - -
23.08.2019 02:00:00 18,1 16,3 18 10 WZW 1024,8 30
23.08.2019 01:00:00 - - - - - - -
23.08.2019 00:00:00 - - - - - - -
22.08.2019 23:00:00 18,1 16,3 22 12 Z 1024,6 35
22.08.2019 22:00:00 - - - - - - -
22.08.2019 21:00:00 - - - - - - -
22.08.2019 20:00:00 18,9 15,4 22 12 ZZO 1024,5 40
22.08.2019 19:00:00 - - - - - - -
22.08.2019 18:00:00 - - - - - - -
22.08.2019 17:00:00 22,2 16,5 18 10 ZZO 1025,4 40
22.08.2019 16:00:00 - - - - - - -
22.08.2019 15:00:00 - - - - - - -
22.08.2019 14:00:00 23,0 14,3 25 14 Z 1026,9 45
22.08.2019 13:00:00 - - - - - - -
22.08.2019 12:00:00 - - - - - - -
22.08.2019 11:00:00 20,3 14,0 25 14 Z 1027,9 40
22.08.2019 10:00:00 - - - - - - -
22.08.2019 09:00:00 - - - - - - -
22.08.2019 08:00:00 17,6 14,5 22 12 ZZW 1027,9 40
22.08.2019 07:00:00 - - - - - - -
22.08.2019 06:00:00 - - - - - - -
22.08.2019 05:00:00 16,6 13,9 18 10 ZW 1027,8 45
22.08.2019 04:00:00 - - - - - - -
22.08.2019 03:00:00 - - - - - - -
22.08.2019 02:00:00 16,9 13,8 14 8 WZW 1027,8 40
22.08.2019 01:00:00 - - - - - - -
22.08.2019 00:00:00 - - - - - - -
21.08.2019 23:00:00 17,5 13,0 22 12 WZW 1027,8 55
21.08.2019 22:00:00 - - - - - - -
21.08.2019 21:00:00 - - - - - - -
21.08.2019 20:00:00 17,8 10,7 11 6 NW 1027,1 45
21.08.2019 19:00:00 - - - - - - -
21.08.2019 18:00:00 - - - - - - -
21.08.2019 17:00:00 19,4 10,4 25 14 NW 1026,7 60
21.08.2019 16:00:00 - - - - - - -
21.08.2019 15:00:00 - - - - - - -
21.08.2019 14:00:00 19,3 12,8 14 8 WNW 1026,0 55
21.08.2019 13:00:00 - - - - - - -
21.08.2019 12:00:00 - - - - - - -
21.08.2019 11:00:00 18,3 13,2 22 12 ZW 1025,5 45
21.08.2019 10:00:00 - - - - - - -
21.08.2019 09:00:00 - - - - - - -
21.08.2019 08:00:00 16,5 12,7 29 16 W 1025,0 30
21.08.2019 07:00:00 - - - - - - -
21.08.2019 06:00:00 - - - - - - -
21.08.2019 05:00:00 15,8 12,7 18 10 W 1023,9 30
21.08.2019 04:00:00 - - - - - - -
21.08.2019 03:00:00 - - - - - - -
21.08.2019 02:00:00 17,2 12,3 22 12 W 1023,0 35
21.08.2019 01:00:00 - - - - - - -
21.08.2019 00:00:00 - - - - - - -
20.08.2019 23:00:00 17,8 13,3 22 12 WZW 1022,6 40
20.08.2019 22:00:00 - - - - - - -
20.08.2019 21:00:00 - - - - - - -
20.08.2019 20:00:00 18,7 12,9 22 12 WZW 1021,4 40
20.08.2019 19:00:00 - - - - - - -
20.08.2019 18:00:00 - - - - - - -
20.08.2019 17:00:00 20,6 14,0 25 14 WZW 1020,8 40
20.08.2019 16:00:00 - - - - - - -
20.08.2019 15:00:00 - - - - - - -
20.08.2019 14:00:00 20,1 14,2 29 16 ZW 1019,9 40
20.08.2019 13:00:00 - - - - - - -
20.08.2019 12:00:00 - - - - - - -
20.08.2019 11:00:00 19,2 15,3 22 12 ZW 1019,5 30
20.08.2019 10:00:00 - - - - - - -
20.08.2019 09:00:00 - - - - - - -
20.08.2019 08:00:00 17,5 14,9 29 16 ZZW 1018,4 24
20.08.2019 07:00:00 - - - - - - -
20.08.2019 06:00:00 - - - - - - -
20.08.2019 05:00:00 16,8 14,3 25 14 ZW 1017,6 30
20.08.2019 04:00:00 - - - - - - -
20.08.2019 03:00:00 - - - - - - -
20.08.2019 02:00:00 17,0 14,3 29 16 ZW 1017,0 35
20.08.2019 01:00:00 - - - - - - -
20.08.2019 00:00:00 - - - - - - -
19.08.2019 23:00:00 17,6 13,3 25 14 ZW 1016,1 40
19.08.2019 22:00:00 - - - - - - -
19.08.2019 21:00:00 - - - - - - -
19.08.2019 20:00:00 18,3 14,0 22 12 WZW 1015,2 28
19.08.2019 19:00:00 - - - - - - -
19.08.2019 18:00:00 - - - - - - -
19.08.2019 17:00:00 20,0 14,8 32 18 ZW 1013,8 27
19.08.2019 16:00:00 - - - - - - -
19.08.2019 15:00:00 - - - - - - -
19.08.2019 14:00:00 20,2 15,0 22 12 ZW 1012,4 22
19.08.2019 13:00:00 - - - - - - -
19.08.2019 12:00:00 - - - - - - -
19.08.2019 11:00:00 19,2 15,5 25 14 ZW 1010,9 20
19.08.2019 10:00:00 - - - - - - -
19.08.2019 09:00:00 - - - - - - -
19.08.2019 08:00:00 16,9 15,1 29 16 ZW 1010,4 20
19.08.2019 07:00:00 - - - - - - -
19.08.2019 06:00:00 - - - - - - -
19.08.2019 05:00:00 16,5 14,9 25 14 WZW 1009,0 40
19.08.2019 04:00:00 - - - - - - -
19.08.2019 03:00:00 - - - - - - -
19.08.2019 02:00:00 16,5 14,9 29 16 W 1007,4 40
19.08.2019 01:00:00 - - - - - - -
19.08.2019 00:00:00 - - - - - - -
18.08.2019 23:00:00 16,1 14,6 25 14 W 1006,0 50
18.08.2019 22:00:00 - - - - - - -
18.08.2019 21:00:00 - - - - - - -
18.08.2019 20:00:00 16,8 15,8 25 14 W 1004,0 65
18.08.2019 19:00:00 - - - - - - -
18.08.2019 18:00:00 - - - - - - -
18.08.2019 17:00:00 17,3 15,1 18 10 Z 1004,3 3,0
18.08.2019 16:00:00 - - - - - - -
18.08.2019 15:00:00 - - - - - - -
18.08.2019 14:00:00 20,0 18,3 18 10 Z 1004,7 7
18.08.2019 13:00:00 - - - - - - -
18.08.2019 12:00:00 - - - - - - -
18.08.2019 11:00:00 19,5 17,6 7 4 ZW 1005,4 20
18.08.2019 10:00:00 - - - - - - -
18.08.2019 09:00:00 - - - - - - -
18.08.2019 08:00:00 17,9 16,6 22 12 ZW 1005,7 20
18.08.2019 07:00:00 - - - - - - -
18.08.2019 06:00:00 - - - - - - -
18.08.2019 05:00:00 18,2 17,4 18 10 ZW 1005,6 13
18.08.2019 04:00:00 - - - - - - -
18.08.2019 03:00:00 - - - - - - -
18.08.2019 02:00:00 17,8 17,3 18 10 Z 1006,6 10
18.08.2019 01:00:00 - - - - - - -
18.08.2019 00:00:00 - - - - - - -

tt = temperatuur
td = dauwpunt
ff = windsnelheid
dd = windrichting
ppp = luchtdruk
vv = zicht

Weerstations in de omgeving